GFSSE_con_mlcape_282.txt.gz
CAPE
0 21 353 538 844 1127 1261 1396 1583 1626 1713 1713 1709 1640 1482 1940 1649 1671 1626 1456 1698 1778 1620 1578 1643 1248 1106 1013 1377 993 1228 1191 1139 1411 1549 1459 1494 1243 1184 1194 1327 1337 1389
0 31 299 455 824 1043 1287 1352 1672 1697 1841 1589 1694 1560 1607 1767 1909 1899 1787 1934 1999 1820 1883 1701 1506 1756 1537 1285 986 1418 1554 1430 1366 1356 1473 1534 1385 1430 1424 1360 1400 1567 1455
0 79 409 602 822 1066 1159 1586 1661 1733 1537 1709 1911 1740 1708 1669 1677 1592 1462 1539 1363 1156 1408 1521 1473 1315 1306 1254 1455 1311 1266 1396 1395 1298 1196 741 615 856 906 949 982 1139 1376
0 165 573 585 914 1185 1356 1518 1500 1722 1922 1984 1890 1772 1798 1843 1674 1505 1200 1198 1557 1791 940 1314 1455 1332 1225 1079 1148 1242 1351 1217 1078 876 621 800 719 658 784 1138 1237 1135 858
0 314 769 810 1014 1365 1561 1835 2031 1917 2053 2034 1844 1706 1697 1654 1775 1119 672 631 620 847 1235 1057 1291 1178 1070 976 800 820 900 1038 641 158 312 496 862 1059 881 944 943 758 1020
15 431 904 1007 1069 1430 1593 1864 1768 1871 1889 1879 1756 1597 1481 1446 1270 979 911 635 527 357 310 482 747 661 619 330 191 385 918 1447 649 314 303 779 862 1275 1214 1175 720 781 1022
64 430 857 1089 1152 1372 1899 1715 1846 1840 2021 1944 1725 1558 1635 1640 1651 1845 1519 1328 795 516 235 232 364 545 346 48 311 790 915 852 203 174 425 667 1070 996 890 1239 899 759 837
50 469 712 1145 1261 1474 2002 1875 1973 2033 2187 1941 1775 1784 1922 1859 1881 1760 1758 1644 1240 994 614 453 488 321 90 12 640 914 631 372 73 0 40 102 263 306 855 1059 868 698 662
274 521 833 1121 1305 1530 1908 2054 1958 2183 2132 1778 1579 1686 1695 1717 1868 1935 1852 1804 1531 1272 1084 1013 716 476 282 196 359 1061 1025 774 36 107 167 208 416 493 445 448 498 528 591
330 476 877 968 1092 1624 1848 2057 2005 2203 1975 1773 1187 1257 1313 1565 1813 1850 1347 1511 1343 1018 675 452 273 162 222 232 290 1278 423 134 41 89 93 99 476 749 687 821 965 771 852
246 356 686 702 827 1412 1713 2058 2058 1647 1625 1736 1417 1204 819 647 832 858 1286 1496 1528 1428 1107 691 566 463 361 309 417 33 5 0 0 0 0 3 53 179 399 327 312 346 350
189 236 257 445 730 1097 1521 1795 1501 1656 1650 1426 894 717 323 417 853 1238 1264 920 999 1297 1536 1500 1251 1044 937 674 323 350 121 2 0 0 0 0 0 60 66 48 30 23 25
206 231 210 267 461 577 697 1023 949 1239 1254 1118 1048 1001 973 942 905 768 732 323 294 732 1028 1229 1289 1376 1184 1041 737 361 320 85 0 0 0 0 0 44 30 3 0 0 0
35 80 129 183 146 269 110 483 707 773 825 799 870 908 746 565 486 418 432 409 592 861 886 1106 1158 1216 1386 1308 1087 839 357 57 0 0 0 0 12 59 91 48 21 13 5
0 13 42 37 2 40 10 105 504 722 938 980 1026 1068 910 577 692 767 817 520 489 475 596 782 827 1016 1131 1180 1207 1106 978 381 13 0 0 0 29 68 167 209 166 116 94
0 0 0 0 0 0 0 3 305 487 800 957 1051 1011 702 676 847 733 374 412 681 483 465 677 816 1140 1115 1098 1102 889 957 928 301 10 0 0 23 216 204 368 516 493 431
0 0 0 0 0 0 0 0 46 297 668 844 982 923 734 847 804 669 550 572 735 785 433 476 971 927 829 938 549 359 514 700 630 133 42 36 35 92 548 415 528 676 722
0 0 0 0 0 0 0 0 38 412 654 733 842 817 745 783 558 523 459 545 895 871 427 576 886 1044 879 1097 1111 1168 606 323 350 271 89 89 102 96 177 656 610 584 690
2 0 0 0 0 0 0 0 36 422 715 825 783 656 643 652 642 463 403 445 830 829 620 763 908 813 811 896 1347 1468 1122 687 600 473 369 242 193 244 311 335 491 657 750
27 16 0 3 0 0 18 74 139 328 613 774 868 724 538 395 542 579 379 355 671 681 680 353 816 990 912 942 1105 1037 707 502 591 714 634 495 428 419 426 445 456 524 634
48 63 31 19 27 88 123 164 246 431 539 635 794 858 763 374 287 308 465 402 447 661 760 486 399 794 644 754 867 1066 959 637 740 644 556 496 529 552 556 436 444 386 324
36 55 83 102 117 205 237 234 300 317 360 394 494 635 680 562 384 330 322 387 284 560 799 791 447 432 555 573 605 806 805 543 774 555 700 646 242 241 318 320 259 165 129
2 22 33 143 146 198 254 183 182 125 164 211 254 261 426 500 429 399 305 217 177 360 747 806 672 455 425 549 726 860 1066 817 792 304 295 814 937 756 519 460 295 13 0
3 6 45 83 133 155 228 194 158 159 108 126 162 196 136 165 242 274 325 318 244 65 288 650 675 585 616 501 688 804 1046 956 960 873 700 878 827 658 470 279 247 0 0
8 6 0 36 102 147 196 209 115 78 48 18 32 170 216 197 180 153 196 263 268 253 148 84 125 429 558 679 574 654 1026 1055 807 826 955 968 692 562 451 481 149 0 2
77 64 77 69 80 123 122 104 113 104 47 29 5 50 132 181 197 172 294 269 348 291 262 306 239 169 371 568 758 826 1076 1194 838 589 460 432 361 250 182 130 0 0 175

GFSSE_con_mlcape_285.txt.gz
CAPE
17 243 342 513 1001 1451 1501 1222 1523 1660 1692 1552 1418 1706 1944 1498 1807 1600 1680 1622 1459 1744 1863 1661 1361 1275 1538 1335 1312 1329 1260 1395 1521 1363 1481 1302 1345 1368 1369 1477 1091 997 1222
37 367 384 730 1069 1206 1275 1417 1496 1579 1675 1608 1435 1534 1408 1231 1373 1864 1694 1846 1949 1765 1695 1891 1832 1576 1298 1237 1600 1627 1715 1549 1501 1409 1461 1365 1435 1357 1156 1331 1031 1291 1466
106 479 579 951 1006 1155 1480 1437 1739 1382 1636 1631 1673 1564 1309 1405 1425 1640 1822 1168 1331 1521 1625 1413 1367 1393 1556 1639 1409 1284 1452 1463 1429 1513 883 363 571 1203 1152 1142 1292 1445 1521
196 499 641 891 1137 1616 1470 1380 1419 1605 1382 1545 1661 1310 1336 1522 1275 1151 1366 1667 1903 1113 1516 1567 1526 1410 1398 1390 1476 1547 1336 1109 1102 849 567 413 299 1025 1346 1222 1051 817 849
299 528 748 981 1401 1402 1708 1933 1670 1676 1805 1641 1307 1440 1408 1137 780 610 624 664 940 1280 1381 1553 1453 1352 1182 899 865 931 1046 1153 453 324 480 761 682 843 942 971 862 1175 1143
338 645 826 1122 1445 1761 2087 1898 1770 1691 1541 1739 1513 1390 1366 1555 1192 989 709 613 502 494 748 1099 1012 857 544 238 244 680 1521 1497 500 498 640 841 973 1007 1193 924 827 1034 805
356 723 884 1258 1426 1884 1922 1822 1627 1706 1803 1632 1500 1537 1624 1791 1992 1656 1196 843 630 387 409 527 739 584 161 283 1207 866 1141 751 496 380 831 1247 1246 933 1249 1089 940 818 1125
208 713 932 1189 1343 1749 1876 1768 1835 1808 1902 1772 1794 1897 1917 1824 1824 1652 1438 1259 1088 728 571 605 485 304 198 372 1095 938 743 371 77 19 161 321 434 457 1137 1045 945 678 756
233 638 1075 1148 1231 1618 1814 1791 1695 2049 1982 1804 1818 1916 1891 1971 1949 1692 1776 1517 1187 973 905 785 578 333 219 389 839 1191 1147 348 56 188 125 142 296 473 384 616 541 559 593
334 460 1048 1324 1192 1609 1747 1613 1940 2092 1978 1728 1497 1596 1474 1522 1681 1450 1361 1573 1305 1026 700 444 275 242 250 346 192 1118 64 50 8 92 70 63 567 914 814 895 931 560 608
528 683 930 1050 1048 1550 1733 1828 1757 1537 1766 1802 1351 1088 860 1034 1199 1536 1512 1614 1705 1767 1719 1377 1010 739 607 419 442 46 1 0 0 0 0 0 16 134 572 473 453 631 566
216 471 937 741 797 1516 1409 2175 1666 1731 1561 1552 1216 1061 983 1226 1456 1335 1068 641 657 864 1027 1254 1485 1367 1351 1128 939 679 450 120 0 0 0 0 0 9 118 139 147 136 131
164 273 628 547 678 1055 1500 1216 1269 1266 1277 1175 1312 1454 1431 1311 1247 1046 1079 945 1264 1343 1669 1699 1813 1838 1863 1577 1382 1019 806 653 32 0 0 0 0 0 49 43 16 8 8
336 227 443 382 607 684 870 782 1134 1309 1363 1232 1420 1509 1366 1202 1424 1466 1370 1108 1195 1183 1349 1481 1559 1768 2034 2134 1975 1788 1568 731 77 1 1 0 0 2 58 122 58 34 34
324 334 382 193 436 511 362 619 987 1267 1425 1462 1505 1589 1369 1434 1438 1420 970 1126 1175 1109 1178 1360 1492 1732 1864 1910 1959 1944 1815 1593 737 59 51 4 0 33 86 302 383 286 217
39 175 274 240 263 369 183 310 801 1163 1398 1485 1539 1537 1275 1303 1531 1365 1183 1279 1361 1484 1086 1041 1529 1621 1548 1847 1790 1308 1337 1601 1626 972 160 95 36 52 161 295 497 693 740
0 24 110 95 94 94 83 273 448 749 1058 1415 1522 1536 1358 1395 1398 1334 1170 1165 1336 1437 1186 1360 1781 1769 1578 1698 1805 1778 1302 1196 1272 1262 731 236 232 122 149 347 488 508 715
0 0 31 8 14 20 24 124 202 500 955 1300 1428 1480 1410 1370 1297 1112 1065 1110 1289 1449 1324 1390 1582 1431 1442 1493 1853 1900 2060 1618 1097 990 974 663 458 464 416 362 554 642 666
0 0 0 9 45 49 25 62 225 391 965 1354 1378 1332 1326 1267 1291 1279 1132 1059 1170 1366 1412 1062 1289 1595 1484 1416 1223 1374 1704 1538 1303 1071 1119 1007 886 657 679 694 501 568 719
8 0 0 0 24 66 44 41 253 458 813 1164 1328 1291 1129 1079 991 1117 1131 1037 1040 1116 1265 1443 1055 1420 1468 1299 1039 1182 1583 1331 1340 1490 1412 1292 1174 1117 998 1019 1111 1045 621
28 20 3 0 15 68 57 55 393 601 922 1134 1290 1395 1471 1454 1102 886 843 933 1133 976 1308 1459 1272 993 946 1234 979 866 902 1378 1307 1206 1329 1215 897 926 1030 1060 1094 992 719
159 95 50 26 82 73 150 352 601 753 962 1063 1229 1254 1329 1400 1244 1086 943 847 994 828 1084 1519 1452 1164 1012 1214 869 756 648 598 1404 1151 1194 1428 1371 1127 1033 970 949 746 438
123 228 194 205 265 165 364 568 549 597 677 660 792 831 887 1019 1110 1120 1035 975 900 871 618 1257 1532 1416 980 1077 1412 912 360 467 1335 1277 1116 1329 1547 1208 1087 911 850 695 242
92 224 371 389 435 512 571 588 691 686 651 601 708 762 838 876 902 971 898 862 806 934 877 638 816 1249 1232 956 1114 1313 1504 1502 985 982 1230 1349 1654 1267 1096 865 783 641 463
87 178 317 389 479 557 510 605 736 727 649 608 491 421 482 710 810 713 755 813 758 764 868 966 873 828 714 693 865 947 1194 1398 1708 1324 774 983 987 859 768 600 410 45 133
141 108 259 252 213 307 301 424 457 470 488 467 482 374 371 407 533 737 811 817 782 808 766 840 1053 1079 985 849 807 1229 1203 686 490 918 903 878 983 935 846 736 480 312 632

GFSSE_con_mlcape_288.txt.gz
CAPE
162 248 561 1055 1462 1007 603 1280 1329 1205 1443 1441 1321 1623 1626 1746 1820 1891 1690 1817 1884 1827 1439 1338 1493 1396 1585 1541 1499 1318 1397 1440 1490 1406 1334 1513 1403 1513 1355 1086 1120 941 1826
135 504 760 1295 1380 1144 1549 1659 1474 890 1104 1141 1458 1474 1477 1632 1438 1593 1719 1903 1775 1905 1761 1646 1603 1425 1551 1549 1516 1403 1331 1453 1527 1463 1170 1261 1302 1047 1265 1301 1191 1198 1399
311 559 897 1213 1395 1594 1649 1715 1391 1410 1326 1311 1416 1174 1111 1440 1866 1670 1368 1588 1665 1715 1537 1484 1627 1598 1559 1446 1343 1415 1485 1645 1545 732 618 364 691 1272 1210 1324 1470 1368 1497
491 606 930 933 1499 1514 1521 1554 1550 1499 1075 1487 1406 1419 1445 1165 1262 1525 1737 1537 1480 1691 1654 1605 1499 1541 1547 1579 1594 1456 1040 1056 593 744 464 226 420 1411 1293 1081 905 1103 1510
566 783 974 1481 1607 1128 1435 1213 1174 1317 1438 1522 1514 1074 903 728 612 691 893 1096 1494 1621 1633 1561 1453 1048 733 695 936 1159 1331 506 368 514 497 552 307 734 1026 1094 1181 1273 1329
659 851 1053 1546 1641 1684 1593 1149 1199 1254 1476 1428 1497 1472 1847 1221 1039 728 674 622 720 1095 1241 1145 891 600 300 636 505 1589 1517 781 718 428 554 298 476 1080 1193 842 861 933 1077
694 796 870 1560 1650 1918 1590 1242 1215 1704 1492 1487 1682 1719 1662 1934 1597 1016 875 624 591 610 696 852 639 317 506 1396 1033 1209 1114 322 78 242 503 552 620 915 1633 1213 923 1301 1256
655 910 727 1180 1773 1775 1435 1427 1680 1726 1714 1832 1931 1857 1803 1601 1481 1374 1194 1044 856 676 682 592 464 408 572 1141 873 816 360 225 0 33 83 120 228 712 1246 1219 964 837 1137
554 924 900 749 1326 1921 1336 1525 2096 1849 1761 1757 1894 1990 2061 1984 1688 1579 1368 1058 902 883 827 701 441 387 424 389 969 1026 218 17 61 82 39 143 226 695 544 596 594 650 718
416 770 998 827 1237 725 1418 1757 2285 1954 1722 1534 1683 1583 1429 1378 1503 1536 1420 1406 1253 868 630 526 532 487 495 419 704 237 15 1 18 58 31 12 357 855 830 965 1064 657 752
375 655 918 876 1121 1492 1244 1467 1056 1179 1026 993 1186 749 1170 1534 1661 1601 768 1035 1330 1548 1654 1571 1311 1039 832 822 308 98 44 0 0 0 0 0 0 32 394 425 318 547 599
267 482 798 650 432 1010 1026 1170 1040 974 1260 1414 1614 1738 1491 1703 1272 1359 1228 1067 1192 1145 1168 1207 1291 1465 1431 994 1186 821 703 353 8 0 0 0 0 0 44 85 106 99 128
229 256 635 662 1032 873 976 657 426 582 768 1106 1772 1918 1674 1429 1844 1757 1729 1809 1745 1597 1685 1817 1947 1800 1937 1619 1376 1325 1267 957 444 110 10 0 0 0 21 40 18 11 8
280 197 446 767 690 932 769 434 396 541 919 1087 1478 1778 1594 1439 1935 1774 1659 1666 1491 1619 1835 1816 1699 2185 2040 2069 2128 1905 1482 1199 673 460 176 0 0 0 37 128 123 72 51
310 286 458 506 695 858 783 793 941 627 954 1215 1386 1688 1452 1678 1978 1651 1791 1631 1657 1600 1553 1699 2012 2176 2164 1827 1873 1765 1460 1514 1438 879 645 137 21 27 77 166 320 371 317
396 350 401 299 624 763 612 1017 1375 1139 1036 1046 1275 1489 1538 1592 2162 1703 1578 1526 1546 1631 1577 1913 2291 2005 1897 1597 1652 1834 1650 1557 1728 1847 1227 767 232 91 109 265 363 486 663
417 473 262 353 352 553 685 859 1276 1238 503 770 1087 1429 1645 1741 1900 2092 1405 1324 1445 1577 1564 1724 1814 1828 1695 1626 1801 1813 1764 1672 1432 1663 1879 1356 917 447 318 258 386 452 539
126 324 262 137 115 286 507 926 858 962 1167 595 626 943 1380 1517 1696 1350 1109 1062 1474 1244 1303 1357 1615 1674 1840 1656 1519 1429 1552 1504 1654 1887 1711 1666 1280 1130 887 663 534 597 675
11 223 274 172 53 168 562 609 825 1053 1186 1009 316 308 992 1444 1497 1755 932 1110 1425 881 1157 1379 1433 1709 1611 1664 1178 1167 1284 1213 1184 1217 1795 2086 1937 1611 1438 1194 857 796 713
2 85 250 200 143 283 405 585 717 949 1096 1245 1126 701 926 1058 1501 1422 810 1137 1324 662 919 1630 1706 1512 1438 1579 1222 1038 975 955 1064 1282 1550 1531 1508 1824 1738 1788 1774 1509 752
54 44 70 129 221 420 550 545 453 592 841 1070 1262 1428 1702 1560 1671 1747 873 681 852 809 1262 1527 1400 1130 1297 1282 1286 774 674 650 802 1031 1193 1231 1276 1315 1460 1494 1738 1248 1076
342 276 188 146 325 487 264 246 483 995 885 968 1234 1552 1709 1650 1604 1717 1612 1107 1051 924 659 1213 1722 1359 972 1109 1389 918 387 301 619 891 1115 1018 1409 1243 1217 1341 1470 1450 810
467 570 570 541 448 622 315 419 924 1179 1260 977 803 823 894 1266 1586 1683 1801 1686 1638 1596 698 632 995 1579 1069 896 1459 1252 674 218 433 184 802 1075 1612 1374 1220 1167 1171 1182 1056
502 567 825 984 1008 986 745 502 833 699 519 749 864 775 930 976 1015 1102 1385 1623 1629 1258 998 1225 979 1124 1162 482 238 458 1101 1151 599 419 272 289 989 1169 938 1013 807 777 467
390 554 754 1075 1355 1320 1307 1314 1061 1048 851 1078 975 978 988 1138 1149 1004 846 1139 1403 1453 1091 1368 1588 1514 1118 978 757 333 453 514 349 633 484 458 404 455 707 532 756 598 364
283 459 680 1093 1552 1557 1398 1112 793 558 717 594 853 840 624 934 826 805 1037 1227 1260 1227 1181 1260 1376 1792 1895 1339 929 919 710 402 254 128 57 71 56 66 194 222 262 283 589

GFSSE_con_mlcape_291.txt.gz
CAPE
222 310 1204 1385 478 723 1256 1299 1531 1403 1470 1441 1770 1721 1834 1700 1714 1910 1708 1737 1568 1489 1560 1460 1495 1558 1230 1322 1366 1480 1469 1447 1301 1617 1541 1504 1457 1396 1290 978 865 1076 1608
256 527 1329 1100 1078 1308 1451 1275 998 1193 1323 1295 1225 1368 1254 1553 1727 1856 1803 1789 1723 1511 1596 1617 1518 1579 1483 1215 1443 1475 1382 1599 1452 1468 1237 1174 1165 1328 1344 1228 825 1059 1744
189 553 827 1062 1678 1377 1591 1452 976 1205 1224 1432 1264 1299 1723 1807 1550 1624 1756 1836 1623 1540 1621 1605 1598 1541 1436 1333 1255 1558 1616 1063 1409 1569 1094 308 962 1344 1453 1388 1435 1658 1573
400 587 761 1069 1311 1502 1670 1388 1369 1515 1546 1537 1421 1401 1383 1555 1644 1732 1405 1813 1721 1691 1583 1568 1578 1568 1527 1573 1484 872 601 247 495 1014 1130 331 652 1239 1002 1007 1344 1485 1368
703 795 1072 1513 1592 1661 1385 1393 1425 1625 1698 1422 973 822 671 730 985 1234 1426 1745 1808 1713 1600 1419 950 730 656 922 1227 1384 507 294 505 691 912 465 236 752 1127 1396 1009 921 1246
799 1099 1518 1764 1778 1653 1414 1443 1422 1589 1605 1493 1724 1616 1148 939 746 868 853 1237 1565 1462 1230 981 566 533 1112 826 1535 1353 848 720 892 526 363 455 771 1121 914 905 863 877 1204
663 819 1044 1830 1939 1449 1538 1426 1591 1553 1679 1679 1741 1617 1946 1206 943 853 765 938 941 891 935 679 457 779 1373 1141 1039 900 396 286 324 614 634 400 637 1583 1309 1009 1091 1392 1152
671 679 872 1787 1888 1536 1566 1671 1702 1708 1897 1819 1736 1471 1393 1313 1240 1143 1043 912 796 788 711 563 531 693 1211 945 517 150 208 365 63 219 233 104 301 1175 1200 1222 847 868 1227
747 614 659 1214 1318 1509 1669 1978 1700 1705 1778 1931 1936 1940 1731 1503 1389 1036 931 975 955 894 773 605 498 498 569 818 563 142 54 154 116 141 234 60 319 585 908 634 647 677 800
772 763 612 1430 1026 1321 1565 2152 1659 1401 1490 1413 1362 1552 1782 1666 1755 1286 780 960 866 618 496 493 480 442 588 377 297 60 27 95 63 91 75 81 517 792 886 1016 840 698 718
720 785 592 1142 6 1588 1269 1021 600 679 972 1050 996 1247 1782 1739 1662 1478 844 1139 1441 1562 1495 1271 1109 1133 1019 680 658 178 226 0 0 7 4 0 30 138 385 314 289 410 438
608 763 565 153 711 1277 708 979 668 559 1658 1917 1965 1818 1082 1251 1261 1200 1525 1429 1442 1349 1439 1705 1790 1695 1694 1778 1312 987 982 256 68 35 0 0 0 9 93 115 92 63 72
431 716 532 154 535 650 456 178 577 830 1349 1923 2328 1833 1828 1399 1804 1396 1423 1734 1643 2007 2041 2049 2127 2130 1206 1408 1053 968 1064 710 391 299 35 0 0 0 32 48 37 25 21
284 469 628 333 958 780 489 316 318 647 943 1231 1851 2004 1824 1341 1290 1174 1347 1220 1184 1232 1497 1400 1512 1720 1589 1591 1542 1440 1177 768 545 553 190 56 31 37 63 140 136 93 70
254 368 782 635 772 937 820 711 321 673 907 1332 1440 1866 1453 1282 1688 1449 1384 1105 1219 1159 1282 1563 1716 1760 1781 1469 1503 1262 1104 1034 1305 887 772 328 101 74 112 218 318 379 331
271 344 1067 279 878 802 1062 1027 614 577 1131 1211 939 1571 1584 1839 2205 1320 1215 953 1069 1307 1462 1762 2058 1548 1420 1274 1578 1592 1416 1358 1268 1356 1319 806 439 237 164 269 362 469 618
361 444 448 255 636 741 981 1285 973 311 402 542 951 1633 1654 1756 2008 1863 1015 963 1129 1338 1367 1522 1806 1464 1187 1270 1400 1296 1302 1312 1275 1476 1419 1325 1049 636 503 389 386 430 544
417 780 319 380 358 562 896 1300 942 912 582 209 405 700 1392 1458 1535 1472 739 765 1712 1164 894 1063 1248 1386 1571 1401 1124 1059 979 1010 1113 1243 1463 1359 1213 1259 877 745 647 640 690
430 571 162 324 147 379 1049 984 1011 1151 1045 686 177 300 1201 1055 826 1258 476 824 1618 849 657 965 1392 1596 1467 1421 1160 911 1007 831 797 809 1228 1662 1627 1665 1580 1265 864 1066 880
425 479 465 344 148 425 837 1030 886 1063 982 985 955 296 474 879 1287 1354 418 698 1035 343 570 2056 1963 1525 1519 1119 1223 1054 824 730 808 809 871 1016 1315 1190 1475 1841 1922 1835 1138
274 485 610 453 414 519 704 735 762 740 822 927 1186 1230 1383 1180 1226 1637 981 760 732 474 1102 1631 1479 1262 976 1023 1247 1034 820 401 485 415 773 734 942 1054 1589 1518 2021 1387 1319
173 323 484 495 573 782 693 708 684 980 1172 1315 880 1425 1526 1525 1404 1204 1705 1089 950 893 827 845 1118 1215 654 729 1106 1100 794 556 126 641 424 916 1124 1078 719 993 1239 1478 1336
496 452 364 401 476 718 588 496 778 1386 1394 715 769 701 990 1409 1383 1526 1700 1834 1942 1776 752 821 884 891 620 878 1057 912 748 586 783 481 223 184 926 1105 1070 822 619 1226 1065
478 675 767 941 759 849 966 571 983 1149 712 773 512 891 743 875 882 977 1336 1606 1911 1745 1835 1364 916 1553 1101 465 195 249 398 769 778 770 375 310 386 409 1320 423 745 621 916
494 678 883 1255 1553 1511 1488 1417 970 1145 1079 1143 763 985 1052 1274 1510 1190 1046 904 1332 1501 1617 1764 1917 1770 1453 1009 549 249 341 283 575 379 186 159 162 190 110 170 115 383 255
539 521 804 1337 1808 1956 1849 1908 1517 379 622 468 719 886 712 784 865 1052 1160 1260 1533 1631 1590 1546 1809 1934 2011 1741 1596 1441 635 408 303 95 40 51 9 12 0 0 15 109 178

GFSSE_con_mlcape_297.txt.gz
CAPE
331 720 367 1111 1336 1281 1476 1480 1599 1680 1697 1800 1833 1797 1626 1577 1783 1692 1667 1583 1449 1602 1487 1438 1524 1636 1458 1488 1359 1235 1469 1459 1317 1156 1387 1302 1120 995 1075 1254 1237 1650 1882
335 334 580 1247 1403 1274 1369 1561 1498 1507 1474 1494 1594 1722 1787 1802 1800 1482 1257 1462 1534 1434 1451 1285 1390 1556 1392 1259 1487 1450 1381 1386 1360 1191 1329 1344 1193 1290 1246 1644 1654 1756 1821
451 619 828 1262 1448 1241 1400 1420 1485 1507 1579 1775 1896 1688 1709 1829 1759 1740 1658 1673 1547 1584 1441 1185 1095 1243 1339 1299 1149 1167 1002 946 1164 1019 840 1014 1289 1355 1557 1372 1342 1341 1533
619 808 1029 1639 1369 1408 1520 1476 1537 1585 1533 1634 1758 1756 1675 1464 1805 1661 1642 1643 1602 1582 1478 1413 1499 1376 610 280 438 873 1010 1138 965 1202 791 216 376 1011 1223 1119 1355 1564 1498
625 729 1512 1368 1618 1514 1565 1487 1382 1242 1016 584 830 1365 1583 1570 1842 1809 1778 1736 1484 1148 860 731 866 919 662 470 232 160 300 468 847 1324 1087 451 739 1144 833 1144 1228 1381 1168
678 1264 1583 1518 1500 1505 1541 1305 1161 1477 1473 1110 635 789 1213 1138 1682 1814 1718 1451 1131 885 570 606 807 543 284 477 397 554 600 910 1249 402 284 534 953 1285 1328 1334 1097 837 683
846 1341 1602 1652 1510 1493 1410 1235 1485 1665 1600 1623 1229 768 962 990 1228 1378 1325 1134 957 651 470 776 1096 865 255 329 445 442 487 920 600 584 634 493 631 754 1189 892 852 782 765
894 1344 1252 1567 1527 1582 1306 1747 1589 1492 1541 1668 1340 760 855 824 878 844 750 602 521 314 284 342 698 322 74 84 137 183 316 807 257 211 284 931 948 775 613 1129 979 750 1327
904 1013 1240 1510 1721 1476 1285 1373 1427 1313 1306 1137 842 688 704 692 618 580 484 388 287 261 187 131 229 271 65 78 85 105 194 479 32 6 24 277 610 802 479 388 593 1058 627
761 805 1062 1355 1477 860 700 789 907 985 1315 1437 1094 927 902 784 574 510 309 285 383 330 180 133 193 285 460 427 269 183 264 507 184 15 0 126 605 526 238 251 298 461 543
646 576 946 1012 1044 522 113 375 681 914 937 1215 1493 1579 1494 1201 1154 779 670 345 365 408 358 426 390 333 204 160 373 910 1244 352 72 0 0 73 109 227 364 294 226 229 292
629 371 820 876 895 484 0 146 472 812 1200 1307 1131 1386 1792 1776 1420 1264 1119 1214 1199 1780 2075 1617 1412 1169 969 855 1144 847 803 607 0 0 0 36 100 198 186 171 260 263 298
613 702 55 680 1066 1157 0 162 453 994 1221 1411 1592 1378 1396 1502 1493 1523 1178 1272 1344 1537 515 838 1690 2128 541 453 461 280 222 358 0 0 0 9 31 93 111 49 25 44 63
332 304 0 214 774 803 708 370 334 872 647 1127 1134 38 627 1011 1612 1233 1355 1373 1686 351 0 251 1255 661 132 335 200 1 288 41 58 3 29 30 29 85 113 58 39 28 21
253 218 0 241 372 545 992 558 482 378 316 403 207 0 4 469 1094 1607 1139 859 1215 975 1012 754 1080 16 254 250 175 333 65 11 138 376 56 61 72 213 333 215 113 84 91
217 34 578 696 795 610 525 223 49 0 0 0 925 141 499 0 1390 1482 424 713 987 547 861 1089 323 116 62 19 139 27 8 0 0 569 289 40 203 230 217 354 463 373 236
207 219 220 640 604 768 477 652 274 318 227 336 1181 579 0 735 1127 1240 332 1141 922 700 686 789 623 94 0 0 137 0 5 1 45 164 315 528 453 273 269 362 318 504 698
583 499 223 584 516 705 500 496 767 855 416 679 1113 1065 661 590 1052 955 760 1280 786 341 448 1300 747 693 582 135 62 164 0 295 129 78 0 440 613 345 179 321 690 492 486
593 520 158 325 534 489 685 942 1151 782 394 656 870 962 868 750 932 557 413 806 608 213 531 1674 1349 1137 716 416 704 406 4 151 630 546 303 482 152 176 0 0 11 514 580
406 459 54 104 479 488 944 1383 782 791 445 1003 833 948 851 569 549 684 613 599 822 360 942 868 875 965 1047 841 1104 939 838 725 452 304 282 191 209 358 339 59 100 721 847
375 416 137 467 393 780 721 895 798 984 1126 826 904 975 991 1064 651 1106 1017 1188 1239 1583 986 762 660 566 575 830 729 949 1040 662 427 432 168 0 80 394 502 414 505 1041 887
514 562 151 978 361 880 746 530 1035 1271 839 1133 559 494 490 401 582 1276 1396 1188 1938 1382 1147 1010 1536 705 649 763 474 798 590 376 432 682 307 175 368 525 481 477 1240 1279 1374
318 296 334 692 415 430 568 958 1151 1280 1338 1046 747 689 518 584 607 693 925 1614 1453 1518 980 1560 1507 1483 1335 1275 956 835 457 524 582 357 99 211 58 124 194 144 177 1015 1356
641 694 881 658 495 339 670 932 825 832 748 752 572 459 336 334 464 156 245 685 674 1194 1271 1265 1651 1283 1313 1177 1453 1437 1114 1235 1196 685 385 308 331 277 133 42 123 443 408
643 675 704 750 615 433 603 909 988 795 830 698 274 48 16 18 22 769 400 91 187 724 1019 1068 1081 1227 1393 1318 1428 1209 1211 1111 1112 1092 747 483 273 182 52 1 0 0 1
648 744 924 1031 1067 1093 895 802 896 731 770 553 468 349 427 468 167 382 166 8 44 478 324 744 778 825 948 1158 1349 1558 1634 1508 1255 1268 992 913 902 809 398 196 23 1 1